West Memphis, AR

8:06 PM CDT on May 27, 2017 (GMT -0500)
West Memphis Municipal

Weather History for KAWM - May, 2014

Change the Weather History Date:

Thursday, May 8, 2014

  Actual Average Record
Temperature  
Mean Temperature 76 °F -  
Max Temperature 86 °F 78 °F 90 °F (1977)
Min Temperature 68 °F 58 °F 42 °F (1992)
Cooling Degree Days 11    
Growing Degree Days 26 (Base 50)    
Moisture  
Dew Point 64 °F    
Average Humidity 66    
Maximum Humidity 84    
Minimum Humidity 47    
Precipitation  
Precipitation 0.00 in - - ()
Sea Level Pressure  
Sea Level Pressure 29.97 in    
Wind  
Wind Speed 13 mph (South)    
Max Wind Speed 20 mph    
Max Gust Speed 29 mph    
Visibility 10 miles    
Events      
Averages and records for this station are not official NWS values.
T = Trace of Precipitation, MM = Missing Value Source: NWS Daily Summary

Daily Weather History Graph

Daily Weather History Graph

Search for Another Location

Airport or City:

Trip Planner

Search our weather history database for the weather conditions in past years. The results will help you decide how hot, cold, wet, or windy it might be!

Date:

Astronomy

May. 08, 2014 Rise Set
Actual Time 6:02 AM CDT 7:52 PM CDT
Civil Twilight 5:35 AM CDT 8:20 PM CDT
Nautical Twilight 5:01 AM CDT 8:53 PM CDT
Astronomical Twilight 4:26 AM CDT 9:29 PM CDT
Moon 2:06 PM CDT (5/8) 2:19 AM CDT (5/8)
Length of Visible Light 14h 44m
Length of Day
13h 49m
Waxing Gibbous, 65% of the Moon is Illuminated
May 8
Waxing Gibbous
May 14
Full
May 21
Last Quarter
May 28
New
Jun 5
First Quarter

Hourly Weather History & Observations

Time (CDT) Temp. Heat Index Dew Point Humidity Pressure Visibility Wind Dir Wind Speed Gust Speed Precip Events Conditions
12:53 AM 70.0 °F - 61.0 °F 73% 29.94 in 10.0 mi South 10.4 mph - N/A   Clear
2:53 AM 71.1 °F - 62.1 °F 73% 29.95 in 10.0 mi South 12.7 mph - N/A   Clear
3:53 AM 71.1 °F - 63.0 °F 75% 29.96 in 10.0 mi South 12.7 mph - N/A   Clear
4:53 AM 69.1 °F - 63.0 °F 81% 29.99 in 10.0 mi South 9.2 mph - N/A   Scattered Clouds
5:53 AM 68.0 °F - 63.0 °F 84% 29.99 in 10.0 mi South 11.5 mph - N/A   Clear
6:53 AM 69.1 °F - 64.0 °F 84% 30.01 in 10.0 mi South 12.7 mph - N/A   Clear
7:53 AM 71.1 °F - 64.9 °F 81% 30.03 in 10.0 mi South 12.7 mph - N/A   Mostly Cloudy
8:53 AM 73.9 °F - 64.9 °F 73% 30.04 in 10.0 mi South 13.8 mph 23.0 mph N/A   Clear
10:53 AM 80.1 °F 81.5 °F 63.0 °F 56% 30.01 in 10.0 mi South 16.1 mph 27.6 mph N/A   Clear
11:53 AM 84.0 °F 84.9 °F 63.0 °F 49% 29.98 in 10.0 mi SSW 18.4 mph 28.8 mph N/A   Clear
1:53 PM 84.0 °F 84.5 °F 62.1 °F 47% 29.97 in 10.0 mi South 16.1 mph 28.8 mph N/A   Mostly Cloudy
2:53 PM 84.0 °F 85.4 °F 64.0 °F 51% 29.95 in 10.0 mi South 19.6 mph - N/A   Mostly Cloudy
4:53 PM 81.0 °F 83.0 °F 66.0 °F 60% 29.94 in 10.0 mi South 11.5 mph - N/A   Overcast
5:53 PM 81.0 °F 82.7 °F 64.9 °F 58% 29.93 in 10.0 mi South 13.8 mph - N/A   Scattered Clouds
6:53 PM 80.1 °F 81.9 °F 64.9 °F 60% 29.94 in 10.0 mi South 17.3 mph - N/A   Mostly Cloudy
7:53 PM 78.1 °F - 64.9 °F 64% 29.94 in 10.0 mi South 15.0 mph - N/A   Scattered Clouds
8:53 PM 77.0 °F - 64.0 °F 64% 29.93 in 10.0 mi SSE 12.7 mph - N/A   Clear
9:53 PM 75.9 °F - 63.0 °F 64% 29.93 in 10.0 mi SSE 11.5 mph - N/A   Scattered Clouds
10:53 PM 75.9 °F - 62.1 °F 62% 29.92 in 10.0 mi South 15.0 mph - N/A   Mostly Cloudy